Regional Weather Roundup
Issued by NWS

Home | Current Version | Previous Version | Text Only | Print | Product List | Glossary On
Versions: 1 2 3 4 5 6 7 8 9 10 11 12 13 14 15 16 17 18 19 20 21 22 23 24 25 26 27 28 29 30 31 32 33 34 35 36 37 38 39 40 41 42 43 44 45 46 47 48 49 50
000
ASUS44 KMEG 302200
RWRTN
TENNESSEE HOURLY STATE WEATHER ROUNDUP
NATIONAL WEATHER SERVICE MEMPHIS TN
500 PM CDT SAT MAY 30 2015

TNZ002-004-019-021-049-052-054-088>092-302300-
WEST TENNESSEE

CITY           SKY/WX    TMP DP  RH WIND       PRES   REMARKS
MEMPHIS INTL   PTSUNNY   83  66  56 W10G17    29.99S
NWS MEMPHIS      N/A     81 N/A N/A MISG        N/A
JACKSON        LGT RAIN  72  69  90 S3        29.99S
DYERSBURG      MOSUNNY   79  57  47 SW15G22   29.99S
PARIS          PTSUNNY   70  64  83 SW14      29.98F
LEXINGTON      SUNNY     75  68  78 S9        29.99F
$$

TNZ008-025-027-028-033-062-065-066-302300-
NORTH MIDDLE TENNESSEE

CITY           SKY/WX    TMP DP  RH WIND       PRES   REMARKS
NASHVILLE      MOSUNNY   82  68  62 S13       30.01F
CLARKSVILLE    MOSUNNY   82  65  56 S18G25    29.96F
COOKEVILLE     SUNNY     84  64  51 S10       30.03F
CROSSVILLE     SUNNY     80  58  46 S7        30.10F
$$

TNZ061-075-076-078-094-096-097-302300-
SOUTH MIDDLE TENNESSEE

CITY           SKY/WX    TMP DP  RH WIND       PRES   REMARKS
FAYETTEVILLE   MOSUNNY  N/A N/A N/A MISG      30.05F
TULLAHOMA      PTSUNNY   75  66  73 W8        30.07S
WINCHESTER     MOSUNNY   84  61  45 S13       30.05F
MCMINNVILLE    MOSUNNY   84  61  45 S7        30.04F
COLUMBIA       SUNNY     82  68  61 S15       30.00S
SHELBYVILLE    CLOUDY    75  72  88 SE3       30.05S
$$

TNZ017-018-042-046-047-302300-
NORTHEAST TENNESSEE

CITY           SKY/WX    TMP DP  RH WIND       PRES   REMARKS
TRI CITIES     PTSUNNY   84  57  39 S12       30.08F
ELIZABETHTON   CLEAR     81  59  47 SW8       30.10F
$$

TNZ012-013-036-069-073-074-302300-
CENTRAL EAST TENNESSEE

CITY           SKY/WX    TMP DP  RH WIND       PRES   REMARKS
KNOXVILLE      MOSUNNY   85  60  42 W7        30.05F
OAK RIDGE      PTSUNNY   86  60  41 VRB6      30.07F
GATLINBURG     PTCLDY    84  61  45 VRB5      30.05F
$$

TNZ083-085-099-302300-
SOUTHEAST TENNESSEE

CITY           SKY/WX    TMP DP  RH WIND       PRES   REMARKS
CHATTANOOGA    MOSUNNY   85  62  46 S8        30.05F
$$

SKY/WX REPORTED AS FAIR MEANS FEW OR NO CLOUDS BELOW
12 THOUSAND FEET.



USA.gov is the U.S. government's official web portal to all federal, state and local government web resources and services.